Weather observations for the past three days for
Moline Quad-City Airport
Imperial (Metric)
Date Time (cdt) Wind (mph) Vis. (mi.) Weather Sky Cond. Temperature (ºF) Relative Humidity Wind Chill (°F) Heat Index (°F) Pressure Precipitation (in)
Air Dwpt 6 hour altimeter (in) sea level (mb) 1 hr 3 hr 6 hr
Max. Min.
19 12:52 Calm 10.00 Mostly Cloudy BKN055 77 54 78.1 57.9 45% 78 30.18 1021.8
19 11:52 Vrbl 3 10.00 Fair CLR 75.9 55 48% 78 30.18 1021.8
19 10:52 S 3 10.00 Fair CLR 75 55 50% 78 30.19 1022.2
19 09:52 S 3 10.00 Fair CLR 73 57.9 59% 30.2 1022.5
19 08:52 Calm 10.00 Fair CLR 69.1 57.9 68% 30.21 1022.8
19 07:52 Calm 10.00 Fair CLR 64.9 57 76% 30.22 1023.2
19 06:52 Calm 10.00 Fair CLR 57.9 55.9 57.9 54 93% 30.21 1023.0
19 05:52 W 5 10.00 Fair CLR 55 53.1 93% 30.21 1023.0
19 04:52 E 5 10.00 Fair CLR 55 53.1 93% 30.21 1022.8
19 03:52 Calm 10.00 Fair CLR 57 54 90% 30.19 1022.2
19 02:52 Calm 10.00 Fair CLR 55.9 54 93% 30.19 1022.1
19 01:52 Calm 10.00 Fair CLR 57 55 93% 30.19 1022.0
19 00:52 Calm 10.00 Fair CLR 57.9 55 73.9 57.9 90% 30.19 1022.0
18 23:52 Calm 10.00 Fair CLR 60.1 57 90% 30.18 1021.9
18 22:52 Calm 10.00 Fair CLR 60.1 57 90% 30.18 1021.8
18 21:52 Calm 10.00 Fair CLR 63 57.9 84% 30.17 1021.6
18 20:52 Calm 10.00 A Few Clouds FEW060 66.9 60.1 79% 30.17 1021.3
18 19:52 Calm 10.00 Fair CLR 70 59 68% 30.17 1021.4
18 18:52 NE 3 10.00 Fair CLR 73.9 55 77 72 52% 30.18 1021.7
18 17:52 Calm 10.00 Fair CLR 75 53.1 46% 78 30.19 1022.0
18 16:52 Calm 10.00 Mostly Cloudy BKN070 75.9 53.1 45% 78 30.2 1022.5
18 15:52 Vrbl 3 10.00 Partly Cloudy SCT060 75.9 52 43% 78 30.2 1022.6
18 14:52 Calm 10.00 Mostly Cloudy BKN055 75 54 48% 78 30.21 1022.8
18 13:52 SE 8 10.00 Overcast BKN050 OVC060 73.9 54 50% 30.22 1023.2
18 12:52 E 6 10.00 Partly Cloudy SCT055 75.9 53.1 77 62.1 45% 78 30.22 1023.2
18 11:52 NE 8 10.00 A Few Clouds FEW050 75 54 48% 78 30.22 1023.2
18 10:52 E 9 10.00 Partly Cloudy SCT032 73.9 57 56% 30.22 1023.2
18 09:52 E 7 10.00 Mostly Cloudy BKN030 71.1 57 61% 30.23 1023.4
18 08:52 NE 5 10.00 Fair CLR 68 57.9 70% 30.23 1023.3
18 07:52 NE 7 10.00 Fair CLR 64.9 57 76% 30.22 1022.9
18 06:52 NE 5 10.00 Fair CLR 62.1 55 66 55.9 78% 30.2 1022.4
18 05:52 Calm 10.00 Fair CLR 57 54 90% 30.19 1022.2
18 04:52 Calm 10.00 Fair CLR 57 54 90% 30.18 1021.6
18 03:52 NW 3 10.00 Fair CLR 57.9 55 90% 30.17 1021.5
18 02:52 Calm 10.00 Fair CLR 57.9 55 90% 30.16 1021.2
18 01:52 Calm 10.00 Fair CLR 60.1 55 84% 30.17 1021.2
18 00:52 NE 6 10.00 Fair CLR 66 53.1 77 64.9 63% 30.16 1020.9
17 23:52 NE 7 10.00 Fair CLR 64.9 55 70% 30.15 1020.5
17 22:52 NE 5 10.00 Fair CLR 68 57 68% 30.12 1019.5
17 21:52 N 6 10.00 Fair CLR 71.1 55 57% 30.1 1018.7
17 20:52 N 7 10.00 Fair CLR 72 54 53% 30.07 1018.0
17 19:52 N 8 10.00 Fair CLR 75 55 50% 78 30.06 1017.5
17 18:52 N 14 G 25 10.00 Fair CLR 77 54 82 75.9 45% 78 30.05 1017.3
17 17:52 NW 14 10.00 A Few Clouds FEW060 77 54 45% 78 30.05 1017.2
17 16:52 N 12 10.00 Partly Cloudy SCT055 80.1 55.9 44% 80 30.05 1017.0
17 15:52 NW 13 10.00 A Few Clouds FEW055 81 57.9 45% 81 30.04 1016.9
17 14:52 NW 10 10.00 Partly Cloudy FEW055 SCT070 81 57.9 45% 81 30.05 1017.0
17 13:52 N 12 G 22 10.00 Mostly Cloudy BKN055 BKN070 79 59 50% 80 30.05 1017.0
17 12:52 NW 14 G 24 10.00 Fair CLR 82 57 82 68 43% 82 30.04 1016.9
17 11:52 NW 13 10.00 Fair CLR 81 55 41% 81 30.04 1016.7
17 10:52 W 12 10.00 Fair CLR 79 63 58% 81 30.03 1016.3
17 09:52 NW 10 10.00 Fair CLR 79 62.1 56% 80 30.02 1015.9
17 08:52 NW 7 10.00 Partly Cloudy SCT110 75.9 63 64% 78 30.01 1015.6
17 07:52 NW 5 10.00 Fair CLR 72 63 73% 29.99 1015.2
17 06:52 W 3 10.00 Fair CLR 68 63 72 63 84% 29.98 1014.7
17 05:52 Calm 10.00 Fair CLR 64.9 62.1 90% 29.96 1014.2
17 04:52 Calm 10.00 Fair CLR 64 62.1 93% 29.94 1013.6
17 03:52 SW 3 10.00 Fair CLR 66 63 90% 29.93 1013.1
17 02:52 NW 5 10.00 Fair CLR 70 63 79% 29.92 1012.7
17 01:52 NW 3 10.00 Fair CLR 72 64 76% 29.92 1012.6
17 00:52 SW 3 10.00 Fair CLR 69.1 64.9 82 69.1 87% 29.92 1012.8
16 23:52 W 5 10.00 Fair CLR 70 66 87% 29.93 1012.9
16 22:52 W 6 10.00 Fair CLR 72 66 82% 29.9 1012.1
16 21:52 W 5 10.00 Fair CLR 73 66 79% 29.88 1011.2
16 20:52 NW 9 10.00 Fair CLR 75.9 64.9 69% 78 29.86 1010.6
16 19:52 NW 13 10.00 Fair CLR 79 66.9 67% 81 29.86 1010.6
16 18:52 NW 12 10.00 A Few Clouds FEW030 82 69.1 86 81 65% 85 29.84 1010.0
16 17:52 NW 10 10.00 Fair CLR 84 70 63% 88 29.84 1010.1
16 16:52 NW 16 10.00 A Few Clouds FEW027 84.9 72 65% 91 29.85 1010.5
16 15:52 W 8 10.00 Fair CLR 82.9 73 72% 89 29.86 1010.7
16 14:52 W 8 10.00 Partly Cloudy SCT036 82 72 72% 87 29.87 1011.1
16 13:52 NW 7 10.00 Mostly Cloudy BKN030 82.9 72 70% 88 29.86 1010.5
Date Time (cdt) Wind (mph) Vis. (mi.) Weather Sky Cond. Air Dwpt Max. Min. Relative Humidity Wind Chill (°F) Heat Index (°F) altimeter (in) sea level (mb) 1 hr 3 hr 6 hr
6 hour
Temperature (ºF) Pressure Precipitation (in)